Showing default

INSAT 3D, 39216

Orbit data source: Space-Track

INSAT 3D, 39216 is a payload satellite owned by ISRO (IN) in GEO that was launched on Thu, 25 Jul 2013 UTC via an ARIANE 5ECA launch vehicle from the French Guiana (FRGUI). Payload-class satellites include a variety of spacecraft equipped with specific instruments for various scientific and technological missions. These include communications satellites like Starlink; space stations such as the ISS; scientific satellites like the Hubble; Earth observation satellites from companies like Planet Labs, Umbra, and HawkEye 360; GPS; miniature CubeSats for education and research; and military/defense satellites.

Not visible in the next 10 days
Identifier
39216, 2013-038B
Orbit
GEO
Country
Flag of ININ / IND
Related business
Manufacturer
ISRO
Mission
Operational Civil Weather
Bus & Motor
I2K, ISRO LAM
Mass
2,090 kg wet, 935 kg dry
Launch date (UTC)
2013-07-25 (13 years ago)
Launch vehicle
ARIANE 5ECA
Launch site
French Guiana (FRGUI)
Object type
Payload
Rocket body
Debris
Shape & HBR
Box + 2 Pan, 4.8 m
Radar Cross Section
8.526 m², Large (>1 m²)

Expand to show TLE details & history
Last TLE update: 16 hours ago

TLE from 16 hours ago
0 INSAT 3D
1 39216U 13038B   26034.44203726 -.00000348  00000-0  00000-0 0  9995
2 39216   1.5810  84.3370 0001836 199.8651 138.0032  1.00268144 45732
Epoch: 2026-02-03T10:36Z
TLE epoch observation values (Epoch: 2026-02-03T10:36:32.019Z)
Latitude
-0.60874°
Longitude
129.50697°
Altitude
35,792.938 km
Speed
3.074 km/s
True Right ascension
04h 09m 03s
True Declination
0° 36' 29"
Sunlit
Object was in daylight at epoch
Visualization orbit readout
Latitude
Unknown
Longitude
Unknown
Altitude
Unknown
Speed
Unknown
Apparent Right ascension
Unknown
Apparent Declination
Unknown
Sunlit
N/A
Visualization observer readout
Local Sidereal Time
04:11:16
Azimuth
Unknown
Elevation
Unknown
Doppler factor
Unknown
Orbital elements
Apogee altitude
35,796.427 km
Perigee altitude
35,780.943 km
Semi-major axis
42,166.822 km
Eccentricity
0.00018
Inclination
1.581°
RAAN
84.337°
Arg. of periapsis
199.8651°
True anomaly
138.01727°
Mean anomaly
138.0032°
Eccentric anomaly
138.01024°
Mean motion
0.25066 °/min
Orbital period
1,436.2 mins
BSTAR
0
Loading maneuver chart data...
Computing Atmospheric mass density...
Loading historical data...
Loading historical data...
Loading historical data...
Loading historical data...
Loading historical data...
Loading historical data...
Loading historical data...
Other satellites on launch #38 in the year 2013 (2013-07-25 UTC)

Documentation

Showing up to 5 results
|